Regional Weather Roundup
Issued by NWS Lake Charles, LA

Home | Current Version | Previous Version | Text Only | Print | Product List | Glossary On
Versions: 1 2 3 4 5 6 7 8 9 10 11 12 13 14 15 16 17 18 19 20 21 22 23 24 25 26 27 28 29 30 31 32 33 34 35 36 37 38 39 40 41 42 43 44 45 46 47 48 49 50
000
ASUS44 KLCH 300010
RWRLCH
RWRLCH
REGIONAL WEATHER ROUNDUP
NATIONAL WEATHER SERVICE LAKE CHARLES LA
700 PM CDT FRI MAY 29 2015

Note: "fair" indicates few or no clouds below 12,000 feet with no
significant weather and/or obstructions to visibility.


ACROSS SOUTHEAST TEXAS

CITY           SKY/WX    TMP DP  RH WIND       PRES   REMARKS
BEAUMONT       PTSUNNY   83  74  74 S12       29.97S
BEAUMONT CITY  MOCLDY    82  73  74 S8        29.97S
ORANGE         MOCLDY    81  74  78 S8        29.99S
JASPER         MOSUNNY   85  74  70 S9        29.98S
$$

ACROSS CENTRAL LOUISIANA

CITY           SKY/WX    TMP DP  RH WIND       PRES   REMARKS
LEESVILLE      NOT AVBL
FULLERTON        N/A     86  71  60 VRB5      29.94S
ALEXANDRIA INT PTSUNNY   83  73  72 S7        29.94S
ESLER FIELD    PTSUNNY   82  72  71 SE6       29.95F
DERIDDER         N/A     83  72  69 S9        29.99S
OAKDALE        MOCLDY    82  74  77 S6        29.97R
OPELOUSAS      MOCLDY    83  72  69 S10G16    29.98S
$$

ACROSS SOUTHWEST AND SOUTH CENTRAL LOUISIANA

CITY           SKY/WX    TMP DP  RH WIND       PRES   REMARKS
SULPHUR        MOCLDY    82  73  72 S12       29.98S
LAKE CHARLES   PTSUNNY   81  72  74 S6        29.98R
CHENNAULT INT  NOT AVBL
CAMERON PHI    PTCLDY    81  73  78 S15       30.01R
DEQUINCY         N/A     82  74  79 S10       29.97F
JENNINGS         N/A     82  72  71 S12G20    29.98R
LAFAYETTE      CLOUDY    83  71  67 S13       30.00R
NEW IBERIA     PTSUNNY   83  72  69 SE14      30.01R
ABBEVILLE        N/A     81  72  74 S12       30.00R
PATTERSON      PTSUNNY   75  72  88 SE3       30.03S
SALT POINT       N/A     81  74  79 VRB7      30.00R
$$

SELECTED SITES ACROSS THE REGION

CITY           SKY/WX    TMP DP  RH WIND       PRES   REMARKS
HOUSTON BUSH   MOSUNNY   86  66  51 S7        29.94S
HOUSTON HOBBY  MOSUNNY   84  66  54 S9        29.94S
GALVESTON      MOSUNNY   82  75  79 S12       29.97S
COLLEGE STAT   SUNNY     86  68  54 SE7       29.92S
CONROE         SUNNY     86  65  49 S9        29.94S
HUNTSVILLE     SUNNY     86  68  54 S8        29.94S
LUFKIN         SUNNY     87  68  52 S7        29.93S
SHREVEPORT     PTSUNNY   84  70  62 SW8       29.90R
MONROE         SUNNY     85  71  63 S13G20    29.94R
NATCHEZ MS     CLOUDY    75  70  83 SE8       30.00R
BATON ROUGE    PTSUNNY   79  72  79 SE9       30.01S
N.O. INTL ARPT PTSUNNY   81  69  67 S8        30.04R
SLIDELL        MOSUNNY   81  71  71 SE7       30.04R
$$

MARINE REPORTS

STATION/POSITION TIME  TEMP    WIND        PRES    VSBY  WAVE
                       AIR SEA DIR/SP/G                  HT/PER
                 (UTC) (F)     (DEG/KT/KT) (MB)    (MI)  (FT/S)
BUOY 30 S HIGH I 2350   81 82  170/ 12/ 14 1014.2S         4/ 5
SEA RIM ST PARK  0000   81     180/ 12/ 15 1015.5S
PORT ARTHUR      2300      78  170/  7/ 12 1015.2R
SABINE PASS N    2300   81 79  180/ 10/ 15 1015.3R
TEXAS POINT      NOT AVBL
CALCASIEU PASS   2300   81 83  190/ 13/ 19   N/A
LK CHARLES BEACH 2300   83 77              1015.4R
MARSH ISLAND     2300   83     180/ 12/ 15   N/A           0
FRESH WATER LOCK 2300   81 84  150/ 12/ 14   N/A
AMERADA PASS     2300   82 83  140/  9/ 12 1016.4S
$$



USA.gov is the U.S. government's official web portal to all federal, state and local government web resources and services.